• Join FlightAware (Why Join?)
  • Login
  • US Flag 
09:27PM EDT


 

Airport Tracker/Info


-or-


 

Live Flight TrackerFlight Track Log ✈ GJS3710 ✈ 07-May-2013 ✈ KSAT - KDEN

Flight Track Log - Related Links

Times and Time Zones

All times are in EDT time to prevent confusion due to time zone crossing. See the GJS3710 flight status page for this flight to view local times or setup timezone preferences in your user account.

Time Position Orientation Groundspeed Altitude Reporting Facility
EDT Latitude Longitude Course Direction KTS MPH feet Rate Location/Type
02:51PM 29.5200 -98.4569 129° Southeast 155 178 1,600  Level Houston Center
02:52PM 29.4983 -98.4261 129° Southeast 181 208 2,800 1,920 Climbing Houston Center
02:53PM 29.4650 -98.3583 119° Southeast 227 261 5,300 2,280 Climbing Houston Center
02:54PM 29.5236 -98.3150 33° Northeast 288 331 7,700 2,640 Climbing Houston Center
02:55PM 29.6133 -98.3258 354° North 282 325 10,800 2,040 Climbing Houston Center
02:56PM 29.7011 -98.3369 354° North 325 374 12,100 1,500 Climbing Houston Center
02:57PM 29.8072 -98.3508 354° North 356 410 13,900 1,620 Climbing Houston Center
02:58PM 29.9072 -98.3797 346° North 369 425 15,500 1,800 Climbing Houston Center
02:59PM 30.0092 -98.4358 335° Northwest 397 457 17,700 1,740 Climbing Houston Center
03:00PM 30.1047 -98.4911 333° Northwest 365 420 19,200 1,500 Climbing Houston Center
03:01PM 30.2025 -98.5447 335° Northwest 386 444 20,900 1,740 Climbing Houston Center
03:02PM 30.3044 -98.6028 334° Northwest 390 449 22,900 1,740 Climbing Houston Center
03:03PM 30.4042 -98.6589 334° Northwest 393 452 24,600 1,560 Climbing Houston Center
03:04PM 30.5042 -98.7153 334° Northwest 395 455 26,200 1,500 Climbing Houston Center
03:05PM 30.6044 -98.7728 334° Northwest 397 457 27,700 1,260 Climbing Houston Center
03:06PM 30.7044 -98.8300 334° Northwest 397 457 28,900 1,080 Climbing Houston Center
03:07PM 30.8061 -98.8883 334° Northwest 400 460 30,000 780 Climbing Houston Center
03:08PM 30.9269 -98.9575 334° Northwest 408 470 30,600 600 Climbing Houston Center
03:09PM 31.0350 -99.0178 334° Northwest 421 484 31,300 720 Climbing Houston Center
03:10PM 31.1414 -99.0803 333° Northwest 423 487 32,200 900 Climbing Houston Center
03:11PM 31.2489 -99.1408 334° Northwest 424 488 33,200 960 Climbing Houston Center
03:12PM 31.3542 -99.2017 334° Northwest 418 481 34,200 900 Climbing Houston Center
03:13PM 31.3944 -99.2264 332° Northwest 417 480 34,500 540 Climbing Fort Worth Center
03:14PM 31.5039 -99.2919 333° Northwest 404 465 35,000 240 Climbing Fort Worth Center
03:15PM 31.6117 -99.3528 334° Northwest 404 465 35,000  Level Fort Worth Center
03:16PM 31.7214 -99.4161 334° Northwest 420 483 35,000  Level Fort Worth Center
03:17PM 31.8289 -99.4769 334° Northwest 427 491 35,000  Level Fort Worth Center
03:18PM 31.9342 -99.5406 333° Northwest 427 491 35,000  Level Fort Worth Center
03:19PM 32.0439 -99.6069 333° Northwest 427 491 35,000  Level Fort Worth Center
03:20PM 32.1533 -99.6708 334° Northwest 427 491 35,000  Level Fort Worth Center
03:21PM 32.2608 -99.7325 334° Northwest 427 491 35,000  Level Fort Worth Center
03:22PM 32.3703 -99.7969 334° Northwest 427 491 35,000  Level Fort Worth Center
03:23PM 32.4694 -99.8486 336° Northwest 427 491 35,000  Level Fort Worth Center
03:24PM 32.5789 -99.9108 334° Northwest 427 491 35,000  Level Fort Worth Center
03:25PM 32.6967 -99.9708 337° Northwest 435 501 35,000 240 Level Fort Worth Center
03:26PM 32.8100 -100.0333 335° Northwest 441 507 35,500 480 Climbing Fort Worth Center
03:27PM 32.9175 -100.0911 336° Northwest 435 501 36,000 240 Climbing Fort Worth Center
03:28PM 33.0308 -100.1539 335° Northwest 435 501 36,000  Level Fort Worth Center
03:29PM 33.1506 -100.2197 335° Northwest 441 507 36,000  Level Fort Worth Center
03:30PM 33.2619 -100.2803 336° Northwest 441 507 36,000  Level Fort Worth Center
03:31PM 33.3731 -100.3436 335° Northwest 441 507 36,000  Level Fort Worth Center
03:32PM 33.4844 -100.4047 335° Northwest 441 507 36,000  Level Fort Worth Center
03:33PM 33.5975 -100.4683 335° Northwest 441 507 36,000  Level Fort Worth Center
03:34PM 33.7086 -100.5319 335° Northwest 441 507 36,000  Level Fort Worth Center
03:35PM 33.8219 -100.5936 336° Northwest 441 507 36,000  Level Fort Worth Center
03:36PM 33.9331 -100.6578 334° Northwest 441 507 36,000  Level Fort Worth Center
03:37PM 34.0461 -100.7197 336° Northwest 441 507 36,000  Level Fort Worth Center
03:39PM 34.2456 -100.8311 335° Northwest 448 516 36,000  Level Albuquerque Center
03:40PM 34.3578 -100.8947 335° Northwest 448 516 36,000  Level Albuquerque Center
03:41PM 34.4703 -100.9589 335° Northwest 447 514 36,000  Level Albuquerque Center
03:42PM 34.5828 -101.0231 335° Northwest 447 514 36,000  Level Albuquerque Center
03:43PM 34.7181 -101.1014 335° Northwest 449 517 36,000  Level Albuquerque Center
03:44PM 34.8292 -101.1675 334° Northwest 446 513 36,000  Level Albuquerque Center
03:45PM 34.9422 -101.2317 335° Northwest 449 517 36,000  Level Albuquerque Center
03:46PM 35.0544 -101.2964 335° Northwest 449 517 36,000  Level Albuquerque Center
03:47PM 35.1761 -101.3672 335° Northwest 453 521 36,000  Level Albuquerque Center
03:48PM 35.2917 -101.4342 335° Northwest 455 524 36,000  Level Albuquerque Center
03:49PM 35.4053 -101.5003 335° Northwest 452 520 36,000  Level Albuquerque Center
03:50PM 35.5228 -101.5697 334° Northwest 448 516 36,000  Level Albuquerque Center
03:51PM 35.6325 -101.6358 334° Northwest 444 511 36,000  Level Albuquerque Center
03:52PM 35.7439 -101.7008 335° Northwest 445 512 36,000  Level Albuquerque Center
03:53PM 35.8550 -101.7675 334° Northwest 445 512 36,000  Level Albuquerque Center
03:54PM 35.9886 -101.8475 334° Northwest 445 512 36,000  Level Albuquerque Center
03:55PM 36.1003 -101.9139 334° Northwest 445 512 36,000  Level Albuquerque Center
03:56PM 36.2114 -101.9797 334° Northwest 443 510 36,000  Level Albuquerque Center
03:57PM 36.3231 -102.0458 335° Northwest 445 512 36,000  Level Albuquerque Center
03:58PM 36.4339 -102.1131 334° Northwest 444 511 36,000  Level Albuquerque Center
03:59PM 36.5444 -102.1803 334° Northwest 443 510 36,000  Level Albuquerque Center
04:00PM 36.6544 -102.2464 334° Northwest 440 506 36,000  Level Albuquerque Center
04:01PM 36.7856 -102.3267 334° Northwest 440 506 36,000  Level Albuquerque Center
04:02PM 36.8983 -102.3969 334° Northwest 440 506 36,000  Level Albuquerque Center
04:03PM 37.0042 -102.4611 334° Northwest 441 507 36,000  Level Albuquerque Center
04:04PM 37.1142 -102.5286 334° Northwest 438 504 36,000  Level Albuquerque Center
04:05PM 37.2367 -102.6044 334° Northwest 439 505 36,000  Level Albuquerque Center
04:06PM 37.3408 -102.6686 334° Northwest 438 504 36,000  Level Albuquerque Center
04:07PM 37.4622 -102.7428 334° Northwest 437 503 36,000  Level Denver Center
04:09PM 37.5719 -102.7953 339° North 445 512 36,000 -420 Level Denver Center
04:10PM 37.7061 -102.8386 346° North 448 516 35,200 -840 Descending Denver Center
04:11PM 37.8219 -102.8750 346° North 449 517 34,300 -1,080 Descending Denver Center
04:12PM 37.9564 -102.9189 346° North 449 517 33,100 -1,080 Descending Denver Center
04:13PM 38.0561 -102.9942 329° Northwest 442 509 32,200 -540 Descending Denver Center
04:14PM 38.1689 -103.0981 324° Northwest 447 514 32,000 -120 Descending Denver Center
04:15PM 38.2656 -103.1875 324° Northwest 447 514 32,000  Level Denver Center
04:16PM 38.3800 -103.2931 324° Northwest 454 522 32,000 -60 Level Denver Center
04:17PM 38.4775 -103.3828 324° Northwest 452 520 31,900 -1,140 Descending Denver Center
04:18PM 38.5867 -103.4861 324° Northwest 441 507 29,700 -1,980 Descending Denver Center
04:19PM 38.6775 -103.5706 324° Northwest 426 490 27,900 -1,800 Descending Denver Center
04:20PM 38.7667 -103.6550 324° Northwest 418 481 26,100 -1,860 Descending Denver Center
04:21PM 38.8622 -103.7456 324° Northwest 403 464 24,100 -1,800 Descending Denver Center
04:22PM 38.9511 -103.8283 324° Northwest 393 452 22,400 -1,620 Descending Denver Center
04:23PM 39.0356 -103.9081 324° Northwest 374 430 20,900 -1,380 Descending Denver Center
04:24PM 39.1169 -103.9850 324° Northwest 363 418 19,600 -1,260 Descending Denver Center
04:25PM 39.2003 -104.0650 323° Northwest 325 374 18,400 -1,080 Descending Denver Center
04:26PM 39.2642 -104.1328 321° Northwest 316 364 17,400 -1,020 Descending Denver Center
04:27PM 39.2842 -104.2294 285° West 270 311 16,400 -1,080 Descending Denver Center
04:28PM 39.3053 -104.3200 287° West 244 281 15,300 -1,080 Descending Denver Center
04:29PM 39.3442 -104.3981 303° West 266 306 14,300 -1,020 Descending Denver Center
04:30PM 39.3925 -104.4681 312° West 264 304 13,300 -1,080 Descending Denver Center
04:31PM 39.4556 -104.5189 328° Northwest 252 290 12,200 -1,080 Descending Denver Center
04:32PM 39.5208 -104.5503 340° North 250 288 11,100 -1,260 Descending Denver Center
04:33PM 39.5908 -104.5842 340° North 251 289 9,700 -1,380 Descending Denver Center
04:34PM 39.6550 -104.6156 339° North 248 285 8,300 -1,140 Descending Denver Center
04:35PM 39.7114 -104.6439 339° North 221 254 7,400 -840 Descending Denver Center
04:36PM 39.7664 -104.6608 347° North 188 216 6,700 -780 Descending Denver Center
04:37PM 39.8094 -104.6611 360° North 156 180 5,900 -660 Descending Denver Center
04:38PM 39.8442 -104.6594 North 125 144 5,400 -540 Descending Denver Center
04:40PM 39.8500 -104.6667 North  Level FlightAware Approximate
04:47PM 39.8617 -104.6732 North  Level Estimated
04:48PM 39.8617 -104.6732 North  Level Estimated